Time,TemperatureF,DewpointF,PressureIn,WindDirection,WindDirectionDegrees,WindSpeedMPH,WindSpeedGustMPH,Humidity,HourlyPrecipIn,Conditions,Clouds,dailyrainin,SolarRadiationWatts/m^2,SoftwareType,DateUTC
2013-07-18 00:01:00,78.8,74.3,30.21,NW,313,1.0,1.0,86,0.00,,,0.00,0,Wunderground v.1.15,2013-07-18 04:01:00,
2013-07-18 00:03:00,78.7,74.2,30.21,NW,314,1.0,2.0,86,0.00,,,0.00,0,Wunderground v.1.15,2013-07-18 04:03:00,
2013-07-18 00:04:00,78.6,74.1,30.21,NW,314,1.0,2.0,86,0.00,,,0.00,0,Wunderground v.1.15,2013-07-18 04:04:00,
2013-07-18 00:06:00,78.5,74.0,30.21,NW,313,1.0,2.0,86,0.00,,,0.00,0,Wunderground v.1.15,2013-07-18 04:06:00,
2013-07-18 00:11:00,78.3,73.8,30.21,NW,318,1.0,2.0,86,0.00,,,0.00,0,Wunderground v.1.15,2013-07-18 04:11:00,
2013-07-18 00:14:00,78.2,74.0,30.21,NW,318,1.0,2.0,87,0.00,,,0.00,0,Wunderground v.1.15,2013-07-18 04:14:00,
2013-07-18 00:20:00,77.9,74.1,30.21,SSW,200,1.0,2.0,88,0.00,,,0.00,0,Wunderground v.1.15,2013-07-18 04:20:00,
2013-07-18 00:25:00,77.6,73.8,30.21,SSW,200,1.0,2.0,88,0.00,,,0.00,0,Wunderground v.1.15,2013-07-18 04:25:00,
2013-07-18 00:30:00,77.4,73.6,30.21,SSW,198,1.0,1.0,88,0.00,,,0.00,0,Wunderground v.1.15,2013-07-18 04:30:00,
2013-07-18 00:36:00,77.2,73.7,30.21,SSW,207,0.0,3.0,89,0.00,,,0.00,0,Wunderground v.1.15,2013-07-18 04:36:00,
2013-07-18 00:41:00,77.0,73.5,30.21,SSW,205,1.0,1.0,89,0.00,,,0.00,0,Wunderground v.1.15,2013-07-18 04:41:00,
2013-07-18 00:46:00,76.9,73.4,30.21,SSW,204,0.0,1.0,89,0.00,,,0.00,0,Wunderground v.1.15,2013-07-18 04:46:00,
2013-07-18 00:51:00,76.7,73.5,30.21,SSW,206,0.0,0.0,90,0.00,,,0.00,0,Wunderground v.1.15,2013-07-18 04:51:00,
2013-07-18 00:56:00,76.5,73.3,30.21,SSW,206,0.0,0.0,90,0.00,,,0.00,0,Wunderground v.1.15,2013-07-18 04:56:00,
2013-07-18 01:01:00,76.3,73.5,30.21,SSW,203,0.0,0.0,91,0.00,,,0.00,0,Wunderground v.1.15,2013-07-18 05:01:00,
2013-07-18 01:06:00,76.2,73.4,30.21,NW,320,0.0,3.0,91,0.00,,,0.00,0,Wunderground v.1.15,2013-07-18 05:06:00,
2013-07-18 01:11:00,76.1,73.3,30.21,NW,321,1.0,1.0,91,0.00,,,0.00,0,Wunderground v.1.15,2013-07-18 05:11:00,
2013-07-18 01:16:00,75.9,73.1,30.21,North,360,1.0,3.0,91,0.00,,,0.00,0,Wunderground v.1.15,2013-07-18 05:16:00,
2013-07-18 01:22:00,75.8,73.3,30.22,NW,318,1.0,1.0,92,0.00,,,0.00,0,Wunderground v.1.15,2013-07-18 05:22:00,
2013-07-18 01:27:00,75.6,73.1,30.21,NW,318,0.0,2.0,92,0.00,,,0.00,0,Wunderground v.1.15,2013-07-18 05:27:00,
2013-07-18 01:32:00,75.5,73.0,30.21,NW,314,0.0,0.0,92,0.00,,,0.00,0,Wunderground v.1.15,2013-07-18 05:32:00,
2013-07-18 01:37:00,75.4,73.2,30.21,WNW,299,0.0,3.0,93,0.00,,,0.00,0,Wunderground v.1.15,2013-07-18 05:37:00,
2013-07-18 01:42:00,75.3,72.8,30.21,WNW,296,1.0,1.0,92,0.00,,,0.00,0,Wunderground v.1.15,2013-07-18 05:42:00,
2013-07-18 01:47:00,75.1,72.9,30.21,NW,325,1.0,4.0,93,0.00,,,0.00,0,Wunderground v.1.15,2013-07-18 05:47:00,
2013-07-18 01:52:00,75.0,72.8,30.21,NW,323,1.0,1.0,93,0.00,,,0.00,0,Wunderground v.1.15,2013-07-18 05:52:00,
2013-07-18 01:58:00,74.9,72.7,30.20,NW,325,0.0,2.0,93,0.00,,,0.00,0,Wunderground v.1.15,2013-07-18 05:58:00,
2013-07-18 02:03:00,74.8,72.6,30.21,NW,316,1.0,2.0,93,0.00,,,0.00,0,Wunderground v.1.15,2013-07-18 06:03:00,
2013-07-18 02:09:00,74.7,72.9,30.20,NW,317,1.0,2.0,94,0.00,,,0.00,0,Wunderground v.1.15,2013-07-18 06:09:00,
2013-07-18 02:14:00,74.6,72.8,30.21,NW,319,0.0,1.0,94,0.00,,,0.00,0,Wunderground v.1.15,2013-07-18 06:14:00,
2013-07-18 02:19:00,74.5,72.3,30.20,NW,318,0.0,1.0,93,0.00,,,0.00,0,Wunderground v.1.15,2013-07-18 06:19:00,
2013-07-18 02:24:00,74.3,72.5,30.20,NW,320,0.0,0.0,94,0.00,,,0.00,0,Wunderground v.1.15,2013-07-18 06:24:00,
2013-07-18 02:29:00,74.2,72.4,30.20,NW,315,0.0,0.0,94,0.00,,,0.00,0,Wunderground v.1.15,2013-07-18 06:29:00,
2013-07-18 02:35:00,74.1,72.3,30.20,NW,318,0.0,0.0,94,0.00,,,0.00,0,Wunderground v.1.15,2013-07-18 06:35:00,
2013-07-18 02:40:00,74.0,72.2,30.20,NW,316,0.0,0.0,94,0.00,,,0.00,0,Wunderground v.1.15,2013-07-18 06:40:00,
2013-07-18 02:45:00,73.8,72.0,30.20,NW,317,0.0,0.0,94,0.00,,,0.00,0,Wunderground v.1.15,2013-07-18 06:45:00,
2013-07-18 02:50:00,73.7,72.2,30.20,NW,317,0.0,0.0,95,0.00,,,0.00,0,Wunderground v.1.15,2013-07-18 06:50:00,
2013-07-18 02:55:00,73.6,72.1,30.20,NW,315,0.0,0.0,95,0.00,,,0.00,0,Wunderground v.1.15,2013-07-18 06:55:00,
2013-07-18 03:00:00,73.4,71.9,30.20,NW,318,0.0,0.0,95,0.00,,,0.00,0,Wunderground v.1.15,2013-07-18 07:00:00,
2013-07-18 03:06:00,73.2,71.7,30.19,NW,317,1.0,4.0,95,0.00,,,0.00,0,Wunderground v.1.15,2013-07-18 07:06:00,
2013-07-18 03:11:00,73.1,71.6,30.19,NW,312,1.0,1.0,95,0.00,,,0.00,0,Wunderground v.1.15,2013-07-18 07:11:00,
2013-07-18 03:16:00,73.0,71.5,30.19,NW,314,0.0,1.0,95,0.00,,,0.00,0,Wunderground v.1.15,2013-07-18 07:16:00,
2013-07-18 03:21:00,72.9,71.7,30.19,NW,313,0.0,0.0,96,0.00,,,0.00,0,Wunderground v.1.15,2013-07-18 07:21:00,
2013-07-18 03:27:00,72.8,71.6,30.19,NW,316,0.0,1.0,96,0.00,,,0.00,0,Wunderground v.1.15,2013-07-18 07:27:00,
2013-07-18 03:32:00,72.7,71.5,30.19,NW,313,0.0,0.0,96,0.00,,,0.00,0,Wunderground v.1.15,2013-07-18 07:32:00,
2013-07-18 03:37:00,72.7,71.8,30.19,NW,314,1.0,2.0,97,0.00,,,0.00,0,Wunderground v.1.15,2013-07-18 07:37:00,
2013-07-18 03:42:00,72.6,71.4,30.19,NW,313,1.0,1.0,96,0.00,,,0.00,0,Wunderground v.1.15,2013-07-18 07:42:00,
2013-07-18 03:47:00,72.6,71.7,30.19,NW,312,1.0,2.0,97,0.00,,,0.00,0,Wunderground v.1.15,2013-07-18 07:47:00,
2013-07-18 03:52:00,72.5,71.6,30.19,NW,309,1.0,2.0,97,0.00,,,0.00,0,Wunderground v.1.15,2013-07-18 07:52:00,
2013-07-18 03:57:00,72.4,71.5,30.19,West,263,2.0,3.0,97,0.00,,,0.00,0,Wunderground v.1.15,2013-07-18 07:57:00,
2013-07-18 04:03:00,72.3,71.4,30.19,West,265,1.0,2.0,97,0.00,,,0.00,0,Wunderground v.1.15,2013-07-18 08:03:00,
2013-07-18 04:09:00,72.2,71.3,30.19,West,266,0.0,2.0,97,0.00,,,0.00,0,Wunderground v.1.15,2013-07-18 08:09:00,
2013-07-18 04:14:00,72.2,71.3,30.19,West,265,0.0,0.0,97,0.00,,,0.00,0,Wunderground v.1.15,2013-07-18 08:14:00,
2013-07-18 04:19:00,72.1,71.2,30.19,West,262,0.0,0.0,97,0.00,,,0.00,0,Wunderground v.1.15,2013-07-18 08:19:00,
2013-07-18 04:24:00,72.2,71.3,30.19,West,265,0.0,0.0,97,0.00,,,0.00,0,Wunderground v.1.15,2013-07-18 08:24:00,
2013-07-18 04:29:00,72.1,71.2,30.19,West,265,0.0,0.0,97,0.00,,,0.00,0,Wunderground v.1.15,2013-07-18 08:29:00,
2013-07-18 04:35:00,72.0,71.1,30.19,West,265,0.0,0.0,97,0.00,,,0.00,0,Wunderground v.1.15,2013-07-18 08:35:00,
2013-07-18 04:40:00,71.9,71.0,30.19,West,263,0.0,0.0,97,0.00,,,0.00,0,Wunderground v.1.15,2013-07-18 08:40:00,
2013-07-18 04:45:00,71.8,70.9,30.19,West,264,0.0,0.0,97,0.00,,,0.00,0,Wunderground v.1.15,2013-07-18 08:45:00,
2013-07-18 04:51:00,71.7,70.8,30.19,West,265,0.0,1.0,97,0.00,,,0.00,0,Wunderground v.1.15,2013-07-18 08:51:00,
2013-07-18 04:56:00,71.7,70.8,30.19,West,263,0.0,1.0,97,0.00,,,0.00,0,Wunderground v.1.15,2013-07-18 08:56:00,
2013-07-18 05:02:00,71.6,71.0,30.19,West,263,0.0,1.0,98,0.00,,,0.00,0,Wunderground v.1.15,2013-07-18 09:02:00,
2013-07-18 05:07:00,71.5,70.9,30.19,West,263,0.0,1.0,98,0.00,,,0.00,0,Wunderground v.1.15,2013-07-18 09:07:00,
2013-07-18 05:12:00,71.4,70.8,30.19,West,266,0.0,2.0,98,0.00,,,0.00,0,Wunderground v.1.15,2013-07-18 09:12:00,
2013-07-18 05:17:00,71.3,70.7,30.19,West,265,0.0,2.0,98,0.00,,,0.00,0,Wunderground v.1.15,2013-07-18 09:17:00,
2013-07-18 05:22:00,71.3,70.7,30.19,West,263,0.0,0.0,98,0.00,,,0.00,0,Wunderground v.1.15,2013-07-18 09:22:00,
2013-07-18 05:27:00,71.2,70.6,30.19,West,265,0.0,0.0,98,0.00,,,0.00,0,Wunderground v.1.15,2013-07-18 09:27:00,
2013-07-18 05:33:00,71.2,70.6,30.19,West,264,0.0,1.0,98,0.00,,,0.00,0,Wunderground v.1.15,2013-07-18 09:33:00,
2013-07-18 05:38:00,71.0,70.4,30.19,West,265,0.0,1.0,98,0.00,,,0.00,0,Wunderground v.1.15,2013-07-18 09:38:00,
2013-07-18 05:43:00,71.0,70.4,30.19,West,265,0.0,1.0,98,0.00,,,0.00,0,Wunderground v.1.15,2013-07-18 09:43:00,
2013-07-18 05:48:00,71.0,70.4,30.19,West,264,0.0,1.0,98,0.00,,,0.00,0,Wunderground v.1.15,2013-07-18 09:48:00,
2013-07-18 05:53:00,70.9,70.3,30.19,West,265,0.0,0.0,98,0.00,,,0.00,0,Wunderground v.1.15,2013-07-18 09:53:00,
2013-07-18 05:58:00,70.8,70.2,30.19,West,263,0.0,0.0,98,0.00,,,0.00,0,Wunderground v.1.15,2013-07-18 09:58:00,
2013-07-18 06:04:00,70.8,70.5,30.19,West,266,0.0,1.0,99,0.00,,,0.00,5,Wunderground v.1.15,2013-07-18 10:04:00,
2013-07-18 06:09:00,70.8,70.5,30.20,West,265,0.0,1.0,99,0.00,,,0.00,7,Wunderground v.1.15,2013-07-18 10:09:00,
2013-07-18 06:15:00,70.7,70.4,30.19,West,266,0.0,1.0,99,0.00,,,0.00,11,Wunderground v.1.15,2013-07-18 10:15:00,
2013-07-18 06:20:00,70.7,70.1,30.20,West,265,0.0,0.0,98,0.00,,,0.00,12,Wunderground v.1.15,2013-07-18 10:20:00,
2013-07-18 06:25:00,70.8,70.5,30.20,West,267,0.0,0.0,99,0.00,,,0.00,16,Wunderground v.1.15,2013-07-18 10:25:00,
2013-07-18 06:30:00,70.8,70.5,30.20,West,267,0.0,0.0,99,0.00,,,0.00,19,Wunderground v.1.15,2013-07-18 10:30:00,
2013-07-18 06:35:00,70.8,70.5,30.20,West,266,0.0,0.0,99,0.00,,,0.00,25,Wunderground v.1.15,2013-07-18 10:35:00,
2013-07-18 06:40:00,70.9,70.6,30.20,North,360,0.0,0.0,99,0.00,,,0.00,28,Wunderground v.1.15,2013-07-18 10:40:00,
2013-07-18 06:45:00,70.9,70.6,30.20,West,262,0.0,0.0,99,0.00,,,0.00,32,Wunderground v.1.15,2013-07-18 10:45:00,
2013-07-18 06:50:00,71.0,70.7,30.20,West,264,0.0,0.0,99,0.00,,,0.00,35,Wunderground v.1.15,2013-07-18 10:50:00,
2013-07-18 06:55:00,71.1,70.8,30.20,West,266,0.0,0.0,99,0.00,,,0.00,40,Wunderground v.1.15,2013-07-18 10:55:00,
2013-07-18 07:00:00,71.2,70.9,30.20,North,360,0.0,0.0,99,0.00,,,0.00,44,Wunderground v.1.15,2013-07-18 11:00:00,
2013-07-18 07:06:00,71.4,71.1,30.20,West,266,0.0,0.0,99,0.00,,,0.00,84,Wunderground v.1.15,2013-07-18 11:06:00,
2013-07-18 07:11:00,71.6,71.6,30.20,West,267,0.0,0.0,100,0.00,,,0.00,97,Wunderground v.1.15,2013-07-18 11:11:00,
2013-07-18 07:16:00,71.9,71.9,30.20,West,264,0.0,0.0,100,0.00,,,0.00,107,Wunderground v.1.15,2013-07-18 11:16:00,
2013-07-18 07:21:00,72.4,72.4,30.20,West,265,0.0,0.0,100,0.00,,,0.00,121,Wunderground v.1.15,2013-07-18 11:21:00,
2013-07-18 07:26:00,72.8,72.8,30.21,West,263,0.0,0.0,100,0.00,,,0.00,135,Wunderground v.1.15,2013-07-18 11:26:00,
2013-07-18 07:31:00,73.3,73.3,30.21,North,360,0.0,0.0,100,0.00,,,0.00,155,Wunderground v.1.15,2013-07-18 11:31:00,
2013-07-18 07:36:00,73.9,73.6,30.21,West,261,0.0,0.0,99,0.00,,,0.00,172,Wunderground v.1.15,2013-07-18 11:36:00,
2013-07-18 07:41:00,74.5,73.6,30.21,West,265,0.0,0.0,97,0.00,,,0.00,146,Wunderground v.1.15,2013-07-18 11:41:00,
2013-07-18 07:46:00,75.1,73.6,30.21,North,360,0.0,0.0,95,0.00,,,0.00,207,Wunderground v.1.15,2013-07-18 11:46:00,
2013-07-18 07:51:00,75.6,73.8,30.21,West,261,0.0,0.0,94,0.00,,,0.00,225,Wunderground v.1.15,2013-07-18 11:51:00,
2013-07-18 07:56:00,76.2,74.0,30.21,West,263,0.0,0.0,93,0.00,,,0.00,236,Wunderground v.1.15,2013-07-18 11:56:00,
2013-07-18 08:01:00,76.8,74.6,30.21,West,263,0.0,0.0,93,0.00,,,0.00,262,Wunderground v.1.15,2013-07-18 12:01:00,
2013-07-18 08:07:00,77.5,74.3,30.20,West,265,0.0,0.0,90,0.00,,,0.00,274,Wunderground v.1.15,2013-07-18 12:07:00,
2013-07-18 08:12:00,78.0,74.5,30.20,West,265,0.0,0.0,89,0.00,,,0.00,295,Wunderground v.1.15,2013-07-18 12:12:00,
2013-07-18 08:17:00,78.4,74.9,30.20,West,265,0.0,0.0,89,0.00,,,0.00,315,Wunderground v.1.15,2013-07-18 12:17:00,
2013-07-18 08:22:00,78.7,74.5,30.20,North,360,0.0,0.0,87,0.00,,,0.00,329,Wunderground v.1.15,2013-07-18 12:22:00,
2013-07-18 08:27:00,78.8,74.3,30.21,West,265,0.0,0.0,86,0.00,,,0.00,343,Wunderground v.1.15,2013-07-18 12:27:00,
2013-07-18 08:32:00,79.3,75.1,30.21,West,266,0.0,0.0,87,0.00,,,0.00,357,Wunderground v.1.15,2013-07-18 12:32:00,
2013-07-18 08:37:00,79.9,75.3,30.21,West,265,0.0,0.0,86,0.00,,,0.00,374,Wunderground v.1.15,2013-07-18 12:37:00,
2013-07-18 08:42:00,80.6,75.7,30.21,West,263,0.0,0.0,85,0.00,,,0.00,388,Wunderground v.1.15,2013-07-18 12:42:00,
2013-07-18 08:47:00,81.0,75.3,30.21,West,263,0.0,0.0,83,0.00,,,0.00,406,Wunderground v.1.15,2013-07-18 12:47:00,
2013-07-18 08:52:00,81.4,76.1,30.21,North,360,0.0,0.0,84,0.00,,,0.00,417,Wunderground v.1.15,2013-07-18 12:52:00,
2013-07-18 08:57:00,81.8,75.8,30.21,West,262,0.0,0.0,82,0.00,,,0.00,406,Wunderground v.1.15,2013-07-18 12:57:00,
2013-07-18 09:03:00,82.3,76.6,30.21,West,263,0.0,0.0,83,0.00,,,0.00,446,Wunderground v.1.15,2013-07-18 13:03:00,
2013-07-18 09:08:00,82.7,76.3,30.21,West,265,0.0,0.0,81,0.00,,,0.00,462,Wunderground v.1.15,2013-07-18 13:08:00,
2013-07-18 09:13:00,83.0,77.3,30.21,West,264,0.0,0.0,83,0.00,,,0.00,478,Wunderground v.1.15,2013-07-18 13:13:00,
2013-07-18 09:18:00,83.3,76.5,30.21,West,267,0.0,1.0,80,0.00,,,0.00,482,Wunderground v.1.15,2013-07-18 13:18:00,
2013-07-18 09:23:00,83.8,77.0,30.21,West,262,0.0,0.0,80,0.00,,,0.00,501,Wunderground v.1.15,2013-07-18 13:23:00,
2013-07-18 09:28:00,84.0,76.8,30.20,West,266,0.0,0.0,79,0.00,,,0.00,520,Wunderground v.1.15,2013-07-18 13:28:00,
2013-07-18 09:33:00,84.4,77.6,30.20,West,263,0.0,0.0,80,0.00,,,0.00,543,Wunderground v.1.15,2013-07-18 13:33:00,
2013-07-18 09:38:00,84.8,77.6,30.20,West,265,0.0,0.0,79,0.00,,,0.00,555,Wunderground v.1.15,2013-07-18 13:38:00,
2013-07-18 09:43:00,85.4,77.8,30.20,West,264,0.0,0.0,78,0.00,,,0.00,564,Wunderground v.1.15,2013-07-18 13:43:00,
2013-07-18 09:48:00,85.9,77.8,30.20,West,265,0.0,0.0,77,0.00,,,0.00,582,Wunderground v.1.15,2013-07-18 13:48:00,
2013-07-18 09:54:00,86.4,77.5,30.20,SW,218,0.0,1.0,75,0.00,,,0.00,599,Wunderground v.1.15,2013-07-18 13:54:00,
2013-07-18 09:59:00,86.8,77.1,30.20,SW,216,0.0,1.0,73,0.00,,,0.00,606,Wunderground v.1.15,2013-07-18 13:59:00,
2013-07-18 10:05:00,87.1,77.4,30.20,SE,137,0.0,2.0,73,0.00,,,0.00,617,Wunderground v.1.15,2013-07-18 14:05:00,
2013-07-18 10:10:00,87.4,77.7,30.20,SE,134,0.0,0.0,73,0.00,,,0.00,624,Wunderground v.1.15,2013-07-18 14:10:00,
2013-07-18 10:15:00,87.7,78.0,30.20,South,171,1.0,3.0,73,0.00,,,0.00,638,Wunderground v.1.15,2013-07-18 14:15:00,
2013-07-18 10:20:00,88.2,78.9,30.19,SSE,162,2.0,3.0,74,0.00,,,0.00,657,Wunderground v.1.15,2013-07-18 14:20:00,
2013-07-18 10:25:00,88.5,78.7,30.19,South,169,2.0,5.0,73,0.00,,,0.00,666,Wunderground v.1.15,2013-07-18 14:25:00,
2013-07-18 10:30:00,89.1,78.9,30.19,SSW,199,2.0,2.0,72,0.00,,,0.00,677,Wunderground v.1.15,2013-07-18 14:30:00,
2013-07-18 10:35:00,89.8,79.1,30.19,South,185,2.0,3.0,71,0.00,,,0.00,698,Wunderground v.1.15,2013-07-18 14:35:00,
2013-07-18 10:40:00,90.3,78.3,30.19,SE,141,2.0,5.0,68,0.00,,,0.00,728,Wunderground v.1.15,2013-07-18 14:40:00,
2013-07-18 10:46:00,90.3,78.7,30.19,SE,138,3.0,5.0,69,0.00,,,0.00,744,Wunderground v.1.15,2013-07-18 14:46:00,
2013-07-18 10:51:00,90.2,78.2,30.19,SE,130,2.0,2.0,68,0.00,,,0.00,752,Wunderground v.1.15,2013-07-18 14:51:00,
2013-07-18 10:56:00,90.4,78.4,30.19,East,79,2.0,5.0,68,0.00,,,0.00,786,Wunderground v.1.15,2013-07-18 14:56:00,
2013-07-18 11:02:00,90.1,78.1,30.18,ENE,71,2.0,4.0,68,0.00,,,0.00,828,Wunderground v.1.15,2013-07-18 15:02:00,
2013-07-18 11:07:00,90.0,77.6,30.18,East,88,2.0,4.0,67,0.00,,,0.00,838,Wunderground v.1.15,2013-07-18 15:07:00,
2013-07-18 11:12:00,90.4,78.8,30.18,East,88,1.0,2.0,69,0.00,,,0.00,854,Wunderground v.1.15,2013-07-18 15:12:00,
2013-07-18 11:17:00,90.9,78.0,30.18,NNE,33,1.0,2.0,66,0.00,,,0.00,875,Wunderground v.1.15,2013-07-18 15:17:00,
2013-07-18 11:22:00,91.6,78.2,30.18,West,267,1.0,4.0,65,0.00,,,0.00,884,Wunderground v.1.15,2013-07-18 15:22:00,
2013-07-18 11:28:00,92.3,79.3,30.18,West,260,2.0,4.0,66,0.00,,,0.00,870,Wunderground v.1.15,2013-07-18 15:28:00,
2013-07-18 11:34:00,93.0,77.1,30.17,West,277,1.0,2.0,60,0.00,,,0.00,817,Wunderground v.1.15,2013-07-18 15:34:00,
2013-07-18 11:39:00,93.2,77.2,30.17,NNE,29,2.0,4.0,60,0.00,,,0.00,227,Wunderground v.1.15,2013-07-18 15:39:00,
2013-07-18 11:45:00,93.3,79.3,30.18,ENE,61,2.0,2.0,64,0.00,,,0.00,895,Wunderground v.1.15,2013-07-18 15:45:00,
2013-07-18 11:50:00,93.2,77.2,30.17,ENE,64,1.0,1.0,60,0.00,,,0.00,928,Wunderground v.1.15,2013-07-18 15:50:00,
2013-07-18 11:55:00,93.1,77.2,30.17,ESE,107,1.0,3.0,60,0.00,,,0.00,905,Wunderground v.1.15,2013-07-18 15:55:00,
2013-07-18 12:00:00,93.5,78.0,30.17,SE,141,1.0,1.0,61,0.00,,,0.00,891,Wunderground v.1.15,2013-07-18 16:00:00,
2013-07-18 12:06:00,93.0,76.6,30.17,SE,130,2.0,3.0,59,0.00,,,0.00,909,Wunderground v.1.15,2013-07-18 16:06:00,
2013-07-18 12:11:00,93.1,77.2,30.17,SSE,167,2.0,6.0,60,0.00,,,0.00,902,Wunderground v.1.15,2013-07-18 16:11:00,
2013-07-18 12:16:00,93.5,77.5,30.16,South,189,3.0,6.0,60,0.00,,,0.00,849,Wunderground v.1.15,2013-07-18 16:16:00,
2013-07-18 12:21:00,94.1,78.1,30.16,South,184,3.0,3.0,60,0.00,,,0.00,244,Wunderground v.1.15,2013-07-18 16:21:00,
2013-07-18 12:26:00,94.1,76.5,30.16,North,360,1.0,3.0,57,0.00,,,0.00,858,Wunderground v.1.15,2013-07-18 16:26:00,
2013-07-18 12:31:00,94.0,76.4,30.16,NW,323,1.0,1.0,57,0.00,,,0.00,236,Wunderground v.1.15,2013-07-18 16:31:00,
2013-07-18 12:36:00,94.0,76.4,30.16,NNW,340,1.0,4.0,57,0.00,,,0.00,907,Wunderground v.1.15,2013-07-18 16:36:00,
2013-07-18 12:41:00,94.1,77.1,30.16,SSE,148,1.0,1.0,58,0.00,,,0.00,262,Wunderground v.1.15,2013-07-18 16:41:00,
2013-07-18 12:46:00,93.7,77.7,30.16,South,191,1.0,2.0,60,0.00,,,0.00,673,Wunderground v.1.15,2013-07-18 16:46:00,
2013-07-18 12:51:00,93.7,78.7,30.16,SSE,159,2.0,4.0,62,0.00,,,0.00,290,Wunderground v.1.15,2013-07-18 16:51:00,
2013-07-18 12:57:00,93.7,77.2,30.15,SSE,150,2.0,4.0,59,0.00,,,0.00,925,Wunderground v.1.15,2013-07-18 16:57:00,
2013-07-18 13:02:00,94.1,78.1,30.15,SSE,152,1.0,2.0,60,0.00,,,0.00,937,Wunderground v.1.15,2013-07-18 17:02:00,
2013-07-18 13:07:00,95.1,80.5,30.15,South,190,1.0,4.0,63,0.00,,,0.00,499,Wunderground v.1.15,2013-07-18 17:07:00,
2013-07-18 13:13:00,95.9,78.2,30.15,South,188,2.0,3.0,57,0.00,,,0.00,664,Wunderground v.1.15,2013-07-18 17:13:00,
2013-07-18 13:18:00,96.1,80.0,30.15,SSE,162,2.0,6.0,60,0.00,,,0.00,260,Wunderground v.1.15,2013-07-18 17:18:00,
2013-07-18 13:23:00,95.9,79.3,30.15,SE,145,3.0,3.0,59,0.00,,,0.00,264,Wunderground v.1.15,2013-07-18 17:23:00,
2013-07-18 13:28:00,95.7,79.6,30.14,SSE,153,2.0,4.0,60,0.00,,,0.00,974,Wunderground v.1.15,2013-07-18 17:28:00,
2013-07-18 13:33:00,96.0,79.4,30.14,SE,130,2.0,3.0,59,0.00,,,0.00,921,Wunderground v.1.15,2013-07-18 17:33:00,
2013-07-18 13:38:00,96.2,78.5,30.15,SSE,165,2.0,5.0,57,0.00,,,0.00,272,Wunderground v.1.15,2013-07-18 17:38:00,
2013-07-18 13:43:00,96.1,77.9,30.14,South,169,2.0,2.0,56,0.00,,,0.00,327,Wunderground v.1.15,2013-07-18 17:43:00,
2013-07-18 13:48:00,96.1,77.9,30.14,South,171,1.0,2.0,56,0.00,,,0.00,928,Wunderground v.1.15,2013-07-18 17:48:00,
2013-07-18 13:53:00,96.2,77.4,30.14,East,80,1.0,2.0,55,0.00,,,0.00,234,Wunderground v.1.15,2013-07-18 17:53:00,
2013-07-18 13:58:00,96.0,77.8,30.14,SSW,202,2.0,6.0,56,0.00,,,0.00,239,Wunderground v.1.15,2013-07-18 17:58:00,
2013-07-18 14:04:00,95.3,76.6,30.13,SSW,209,2.0,2.0,55,0.00,,,0.00,285,Wunderground v.1.15,2013-07-18 18:04:00,
2013-07-18 14:09:00,95.2,77.0,30.13,SSW,200,1.0,2.0,56,0.00,,,0.00,933,Wunderground v.1.15,2013-07-18 18:09:00,
2013-07-18 14:14:00,95.3,76.6,30.13,NNE,32,1.0,1.0,55,0.00,,,0.00,914,Wunderground v.1.15,2013-07-18 18:14:00,
2013-07-18 14:19:00,95.5,76.8,30.13,NNW,338,1.0,4.0,55,0.00,,,0.00,464,Wunderground v.1.15,2013-07-18 18:19:00,
2013-07-18 14:24:00,96.0,76.7,30.12,North,360,2.0,3.0,54,0.00,,,0.00,942,Wunderground v.1.15,2013-07-18 18:24:00,
2013-07-18 14:29:00,96.6,77.2,30.12,WSW,250,1.0,3.0,54,0.00,,,0.00,918,Wunderground v.1.15,2013-07-18 18:29:00,
2013-07-18 14:35:00,97.0,76.5,30.12,WNW,300,2.0,5.0,52,0.00,,,0.00,905,Wunderground v.1.15,2013-07-18 18:35:00,
2013-07-18 14:40:00,97.1,77.7,30.11,North,360,2.0,7.0,54,0.00,,,0.00,923,Wunderground v.1.15,2013-07-18 18:40:00,
2013-07-18 14:45:00,97.4,77.4,30.11,WNW,295,4.0,8.0,53,0.00,,,0.00,874,Wunderground v.1.15,2013-07-18 18:45:00,
2013-07-18 14:50:00,97.3,77.3,30.11,West,263,5.0,5.0,53,0.00,,,0.00,891,Wunderground v.1.15,2013-07-18 18:50:00,
2013-07-18 14:56:00,97.5,76.9,30.11,North,360,3.0,5.0,52,0.00,,,0.00,881,Wunderground v.1.15,2013-07-18 18:56:00,
2013-07-18 15:01:00,97.5,76.3,30.11,North,5,3.0,6.0,51,0.00,,,0.00,896,Wunderground v.1.15,2013-07-18 19:01:00,
2013-07-18 15:06:00,96.8,76.3,30.11,NW,318,3.0,6.0,52,0.00,,,0.00,257,Wunderground v.1.15,2013-07-18 19:06:00,
2013-07-18 15:11:00,96.3,77.5,30.11,North,360,3.0,4.0,55,0.00,,,0.00,264,Wunderground v.1.15,2013-07-18 19:11:00,
2013-07-18 15:17:00,96.3,76.9,30.11,NW,306,3.0,4.0,54,0.00,,,0.00,842,Wunderground v.1.15,2013-07-18 19:17:00,
2013-07-18 15:22:00,97.0,78.7,30.10,West,263,2.0,5.0,56,0.00,,,0.00,879,Wunderground v.1.15,2013-07-18 19:22:00,
2013-07-18 15:28:00,97.5,79.2,30.10,SW,220,3.0,6.0,56,0.00,,,0.00,338,Wunderground v.1.15,2013-07-18 19:28:00,
2013-07-18 15:33:00,97.5,79.7,30.10,SW,216,3.0,4.0,57,0.00,,,0.00,211,Wunderground v.1.15,2013-07-18 19:33:00,
2013-07-18 15:38:00,97.1,78.2,30.10,West,265,3.0,5.0,55,0.00,,,0.00,209,Wunderground v.1.15,2013-07-18 19:38:00,
2013-07-18 15:43:00,96.5,78.8,30.10,West,268,3.0,6.0,57,0.00,,,0.00,664,Wunderground v.1.15,2013-07-18 19:43:00,
2013-07-18 15:48:00,96.3,79.6,30.10,West,269,4.0,6.0,59,0.00,,,0.00,236,Wunderground v.1.15,2013-07-18 19:48:00,
2013-07-18 15:53:00,96.1,80.0,30.09,North,360,3.0,6.0,60,0.00,,,0.00,784,Wunderground v.1.15,2013-07-18 19:53:00,
2013-07-18 15:59:00,96.4,78.7,30.09,West,259,3.0,7.0,57,0.00,,,0.00,318,Wunderground v.1.15,2013-07-18 19:59:00,
2013-07-18 16:05:00,96.9,76.4,30.09,West,279,3.0,6.0,52,0.00,,,0.00,752,Wunderground v.1.15,2013-07-18 20:05:00,
2013-07-18 16:10:00,97.1,77.1,30.09,SSW,204,2.0,2.0,53,0.00,,,0.00,330,Wunderground v.1.15,2013-07-18 20:10:00,
2013-07-18 16:15:00,97.3,78.4,30.09,South,169,2.0,7.0,55,0.00,,,0.00,671,Wunderground v.1.15,2013-07-18 20:15:00,
2013-07-18 16:20:00,97.6,80.9,30.09,SSW,197,5.0,5.0,59,0.00,,,0.00,671,Wunderground v.1.15,2013-07-18 20:20:00,
2013-07-18 16:25:00,97.8,81.6,30.09,South,184,6.0,10.0,60,0.00,,,0.00,664,Wunderground v.1.15,2013-07-18 20:25:00,
2013-07-18 16:30:00,97.9,81.6,30.09,SSW,205,7.0,7.0,60,0.00,,,0.00,475,Wunderground v.1.15,2013-07-18 20:30:00,
2013-07-18 16:36:00,97.6,82.4,30.08,North,360,6.0,10.0,62,0.00,,,0.00,659,Wunderground v.1.15,2013-07-18 20:36:00,
2013-07-18 16:41:00,97.4,80.1,30.08,North,360,7.0,8.0,58,0.00,,,0.00,645,Wunderground v.1.15,2013-07-18 20:41:00,
2013-07-18 16:46:00,97.3,81.6,30.08,SSW,197,8.0,10.0,61,0.00,,,0.00,631,Wunderground v.1.15,2013-07-18 20:46:00,
2013-07-18 16:51:00,97.5,81.3,30.08,SW,217,7.0,7.0,60,0.00,,,0.00,253,Wunderground v.1.15,2013-07-18 20:51:00,
2013-07-18 16:56:00,97.1,81.4,30.07,North,360,6.0,9.0,61,0.00,,,0.00,237,Wunderground v.1.15,2013-07-18 20:56:00,
2013-07-18 17:01:00,96.3,80.7,30.07,SSW,194,5.0,8.0,61,0.00,,,0.00,271,Wunderground v.1.15,2013-07-18 21:01:00,
2013-07-18 17:06:00,95.8,81.2,30.07,WSW,244,6.0,9.0,63,0.00,,,0.00,251,Wunderground v.1.15,2013-07-18 21:06:00,
2013-07-18 17:12:00,95.1,81.5,30.07,SSW,202,7.0,7.0,65,0.00,,,0.00,195,Wunderground v.1.15,2013-07-18 21:12:00,
2013-07-18 17:17:00,94.9,80.8,30.07,SSW,193,7.0,11.0,64,0.00,,,0.00,510,Wunderground v.1.15,2013-07-18 21:17:00,
2013-07-18 17:22:00,94.8,80.2,30.07,SW,228,8.0,11.0,63,0.00,,,0.00,480,Wunderground v.1.15,2013-07-18 21:22:00,
2013-07-18 17:28:00,94.8,79.7,30.07,North,360,7.0,11.0,62,0.00,,,0.00,429,Wunderground v.1.15,2013-07-18 21:28:00,
2013-07-18 17:34:00,94.4,78.9,30.07,SW,226,4.0,6.0,61,0.00,,,0.00,134,Wunderground v.1.15,2013-07-18 21:34:00,
2013-07-18 17:39:00,93.7,80.2,30.07,SW,230,3.0,6.0,65,0.00,,,0.00,146,Wunderground v.1.15,2013-07-18 21:39:00,
2013-07-18 17:45:00,93.0,80.4,30.07,North,360,3.0,5.0,67,0.00,,,0.00,163,Wunderground v.1.15,2013-07-18 21:45:00,
2013-07-18 17:50:00,92.4,79.8,30.07,South,188,3.0,8.0,67,0.00,,,0.00,183,Wunderground v.1.15,2013-07-18 21:50:00,
2013-07-18 17:56:00,92.0,79.0,30.08,SSW,198,5.0,8.0,66,0.00,,,0.00,183,Wunderground v.1.15,2013-07-18 21:56:00,
2013-07-18 18:01:00,91.9,79.8,30.08,SW,232,5.0,9.0,68,0.00,,,0.00,142,Wunderground v.1.15,2013-07-18 22:01:00,
2013-07-18 18:06:00,91.6,80.0,30.08,SSW,200,5.0,9.0,69,0.00,,,0.00,135,Wunderground v.1.15,2013-07-18 22:06:00,
2013-07-18 18:12:00,91.2,79.2,30.08,SW,234,5.0,5.0,68,0.00,,,0.00,139,Wunderground v.1.15,2013-07-18 22:12:00,
2013-07-18 18:17:00,91.0,79.8,30.08,SSW,203,4.0,6.0,70,0.00,,,0.00,163,Wunderground v.1.15,2013-07-18 22:17:00,
2013-07-18 18:22:00,90.8,80.5,30.08,SSW,209,5.0,7.0,72,0.00,,,0.00,174,Wunderground v.1.15,2013-07-18 22:22:00,
2013-07-18 18:27:00,90.7,80.0,30.08,South,189,6.0,9.0,71,0.00,,,0.00,200,Wunderground v.1.15,2013-07-18 22:27:00,
2013-07-18 18:32:00,90.6,80.3,30.08,South,187,6.0,6.0,72,0.00,,,0.00,230,Wunderground v.1.15,2013-07-18 22:32:00,
2013-07-18 18:38:00,90.7,80.4,30.09,SSW,208,3.0,6.0,72,0.00,,,0.00,274,Wunderground v.1.15,2013-07-18 22:38:00,
2013-07-18 18:43:00,90.8,79.2,30.08,SE,146,2.0,3.0,69,0.00,,,0.00,229,Wunderground v.1.15,2013-07-18 22:43:00,
2013-07-18 18:49:00,90.7,80.4,30.09,SSW,196,2.0,6.0,72,0.00,,,0.00,181,Wunderground v.1.15,2013-07-18 22:49:00,
2013-07-18 18:54:00,90.5,79.4,30.09,South,190,3.0,8.0,70,0.00,,,0.00,197,Wunderground v.1.15,2013-07-18 22:54:00,
2013-07-18 18:59:00,90.4,78.4,30.09,SSW,199,5.0,8.0,68,0.00,,,0.00,163,Wunderground v.1.15,2013-07-18 22:59:00,
2013-07-18 19:05:00,90.4,79.3,30.08,SSW,207,3.0,5.0,70,0.00,,,0.00,199,Wunderground v.1.15,2013-07-18 23:05:00,
2013-07-18 19:11:00,90.4,79.3,30.08,WSW,245,1.0,2.0,70,0.00,,,0.00,142,Wunderground v.1.15,2013-07-18 23:11:00,
2013-07-18 19:16:00,90.2,79.9,30.09,SSW,205,2.0,4.0,72,0.00,,,0.00,128,Wunderground v.1.15,2013-07-18 23:16:00,
2013-07-18 19:21:00,89.9,79.2,30.09,SSE,166,3.0,3.0,71,0.00,,,0.00,121,Wunderground v.1.15,2013-07-18 23:21:00,
2013-07-18 19:26:00,89.5,79.7,30.09,South,184,5.0,8.0,73,0.00,,,0.00,109,Wunderground v.1.15,2013-07-18 23:26:00,
2013-07-18 19:31:00,89.0,79.2,30.09,South,191,4.0,4.0,73,0.00,,,0.00,93,Wunderground v.1.15,2013-07-18 23:31:00,
2013-07-18 19:36:00,88.7,79.3,30.09,North,360,3.0,4.0,74,0.00,,,0.00,81,Wunderground v.1.15,2013-07-18 23:36:00,
2013-07-18 19:41:00,88.4,79.9,30.08,West,269,2.0,3.0,76,0.00,,,0.00,69,Wunderground v.1.15,2013-07-18 23:41:00,
2013-07-18 19:46:00,88.1,80.0,30.08,WSW,244,2.0,3.0,77,0.00,,,0.00,60,Wunderground v.1.15,2013-07-18 23:46:00,
2013-07-18 19:51:00,87.8,80.1,30.08,SW,221,2.0,4.0,78,0.00,,,0.00,51,Wunderground v.1.15,2013-07-18 23:51:00,
2013-07-18 19:57:00,87.5,80.2,30.08,SSW,205,2.0,5.0,79,0.00,,,0.00,42,Wunderground v.1.15,2013-07-18 23:57:00,
2013-07-18 20:02:00,87.2,79.9,30.08,SSW,205,1.0,2.0,79,0.00,,,0.00,33,Wunderground v.1.15,2013-07-19 00:02:00,
2013-07-18 20:07:00,86.8,79.9,30.08,SSW,204,1.0,2.0,80,0.00,,,0.00,28,Wunderground v.1.15,2013-07-19 00:07:00,
2013-07-18 20:12:00,86.5,80.0,30.08,SSW,204,1.0,1.0,81,0.00,,,0.00,21,Wunderground v.1.15,2013-07-19 00:12:00,
2013-07-18 20:17:00,86.1,80.0,30.07,North,360,1.0,2.0,82,0.00,,,0.00,14,Wunderground v.1.15,2013-07-19 00:17:00,
2013-07-18 20:22:00,85.5,79.7,30.08,SSW,205,1.0,3.0,83,0.00,,,0.00,12,Wunderground v.1.15,2013-07-19 00:22:00,
2013-07-18 20:25:00,85.2,79.8,30.08,SSW,206,1.0,3.0,84,0.00,,,0.00,12,Wunderground v.1.15,2013-07-19 00:25:00,
2013-07-18 20:30:00,84.7,79.7,30.07,SSW,205,2.0,2.0,85,0.00,,,0.00,9,Wunderground v.1.15,2013-07-19 00:30:00,
2013-07-18 20:35:00,84.4,79.4,30.07,North,360,2.0,3.0,85,0.00,,,0.00,7,Wunderground v.1.15,2013-07-19 00:35:00,
2013-07-18 20:40:00,84.0,79.0,30.08,North,360,2.0,4.0,85,0.00,,,0.00,5,Wunderground v.1.15,2013-07-19 00:40:00,
2013-07-18 20:45:00,83.5,78.9,30.08,WSW,253,2.0,4.0,86,0.00,,,0.00,0,Wunderground v.1.15,2013-07-19 00:45:00,
2013-07-18 20:50:00,83.1,78.5,30.08,WSW,254,1.0,1.0,86,0.00,,,0.00,0,Wunderground v.1.15,2013-07-19 00:50:00,
2013-07-18 20:55:00,82.8,78.2,30.08,WSW,252,1.0,2.0,86,0.00,,,0.00,0,Wunderground v.1.15,2013-07-19 00:55:00,
2013-07-18 21:00:00,82.4,77.8,30.08,SSW,212,2.0,4.0,86,0.00,,,0.00,0,Wunderground v.1.15,2013-07-19 01:00:00,
2013-07-18 21:06:00,81.9,77.6,30.08,SW,214,4.0,6.0,87,0.00,,,0.00,0,Wunderground v.1.15,2013-07-19 01:06:00,
2013-07-18 21:12:00,81.5,77.6,30.08,SW,214,2.0,3.0,88,0.00,,,0.00,0,Wunderground v.1.15,2013-07-19 01:12:00,
2013-07-18 21:17:00,81.3,77.4,30.08,SW,217,1.0,3.0,88,0.00,,,0.00,0,Wunderground v.1.15,2013-07-19 01:17:00,
2013-07-18 21:22:00,81.2,77.3,30.08,SW,217,2.0,4.0,88,0.00,,,0.00,0,Wunderground v.1.15,2013-07-19 01:22:00,
2013-07-18 21:27:00,80.9,77.4,30.08,SW,217,2.0,4.0,89,0.00,,,0.00,0,Wunderground v.1.15,2013-07-19 01:27:00,
2013-07-18 21:32:00,80.7,77.2,30.09,SW,227,1.0,1.0,89,0.00,,,0.00,0,Wunderground v.1.15,2013-07-19 01:32:00,
2013-07-18 21:38:00,80.4,76.9,30.09,SW,227,1.0,2.0,89,0.00,,,0.00,0,Wunderground v.1.15,2013-07-19 01:38:00,
2013-07-18 21:43:00,80.2,76.7,30.09,SW,233,2.0,2.0,89,0.00,,,0.00,0,Wunderground v.1.15,2013-07-19 01:43:00,
2013-07-18 21:48:00,79.9,76.4,30.09,SW,216,2.0,4.0,89,0.00,,,0.00,0,Wunderground v.1.15,2013-07-19 01:48:00,
2013-07-18 21:53:00,79.7,76.5,30.09,SSW,211,3.0,5.0,90,0.00,,,0.00,0,Wunderground v.1.15,2013-07-19 01:53:00,
2013-07-18 21:59:00,79.5,76.3,30.09,SSW,196,3.0,5.0,90,0.00,,,0.00,0,Wunderground v.1.15,2013-07-19 01:59:00,
2013-07-18 22:04:00,79.2,76.0,30.09,WSW,242,3.0,3.0,90,0.00,,,0.00,0,Wunderground v.1.15,2013-07-19 02:04:00,
2013-07-18 22:09:00,79.1,75.9,30.09,SW,235,2.0,4.0,90,0.00,,,0.00,0,Wunderground v.1.15,2013-07-19 02:09:00,
2013-07-18 22:14:00,78.9,76.0,30.09,SW,219,2.0,4.0,91,0.00,,,0.00,0,Wunderground v.1.15,2013-07-19 02:14:00,
2013-07-18 22:19:00,78.8,75.9,30.09,West,263,2.0,4.0,91,0.00,,,0.00,0,Wunderground v.1.15,2013-07-19 02:19:00,
2013-07-18 22:24:00,78.6,75.8,30.09,WSW,258,2.0,2.0,91,0.00,,,0.00,0,Wunderground v.1.15,2013-07-19 02:24:00,
2013-07-18 22:30:00,78.5,75.3,30.09,WSW,257,1.0,1.0,90,0.00,,,0.00,0,Wunderground v.1.15,2013-07-19 02:30:00,
2013-07-18 22:35:00,78.4,75.2,30.09,WSW,252,1.0,4.0,90,0.00,,,0.00,0,Wunderground v.1.15,2013-07-19 02:35:00,
2013-07-18 22:41:00,78.4,75.6,30.09,WSW,252,1.0,1.0,91,0.00,,,0.00,0,Wunderground v.1.15,2013-07-19 02:41:00,
2013-07-18 22:46:00,78.2,75.4,30.09,WSW,250,0.0,3.0,91,0.00,,,0.00,0,Wunderground v.1.15,2013-07-19 02:46:00,
2013-07-18 22:51:00,78.1,75.3,30.09,WSW,254,1.0,1.0,91,0.00,,,0.00,0,Wunderground v.1.15,2013-07-19 02:51:00,
2013-07-18 22:56:00,77.9,75.1,30.09,WSW,255,1.0,1.0,91,0.00,,,0.00,0,Wunderground v.1.15,2013-07-19 02:56:00,
2013-07-18 23:02:00,77.7,74.9,30.09,WSW,250,0.0,0.0,91,0.00,,,0.00,0,Wunderground v.1.15,2013-07-19 03:02:00,
2013-07-18 23:07:00,77.6,74.8,30.09,WSW,252,0.0,0.0,91,0.00,,,0.00,0,Wunderground v.1.15,2013-07-19 03:07:00,
2013-07-18 23:12:00,77.5,74.7,30.09,WSW,254,0.0,0.0,91,0.00,,,0.00,0,Wunderground v.1.15,2013-07-19 03:12:00,
2013-07-18 23:18:00,77.3,74.5,30.09,WSW,252,0.0,0.0,91,0.00,,,0.00,0,Wunderground v.1.15,2013-07-19 03:18:00,
2013-07-18 23:23:00,77.1,74.6,30.09,WSW,252,0.0,2.0,92,0.00,,,0.00,0,Wunderground v.1.15,2013-07-19 03:23:00,
2013-07-18 23:28:00,76.9,74.4,30.09,SW,217,1.0,4.0,92,0.00,,,0.00,0,Wunderground v.1.15,2013-07-19 03:28:00,
2013-07-18 23:33:00,76.7,74.5,30.09,SW,217,2.0,2.0,93,0.00,,,0.00,0,Wunderground v.1.15,2013-07-19 03:33:00,
2013-07-18 23:38:00,76.5,74.3,30.09,SSW,204,1.0,2.0,93,0.00,,,0.00,0,Wunderground v.1.15,2013-07-19 03:38:00,
2013-07-18 23:43:00,76.4,74.2,30.09,SSW,202,1.0,1.0,93,0.00,,,0.00,0,Wunderground v.1.15,2013-07-19 03:43:00,
2013-07-18 23:49:00,76.3,74.1,30.09,SSW,205,0.0,1.0,93,0.00,,,0.00,0,Wunderground v.1.15,2013-07-19 03:49:00,
2013-07-18 23:54:00,76.1,73.9,30.09,SSW,205,0.0,0.0,93,0.00,,,0.00,0,Wunderground v.1.15,2013-07-19 03:54:00,
2013-07-18 23:59:00,76.0,74.1,30.09,SSW,204,0.0,0.0,94,0.00,,,0.00,0,Wunderground v.1.15,2013-07-19 03:59:00,